STARLINK-2402, 47819

Orbit data source: Space-Track

STARLINK-2402, 47819 is a payload satellite owned by SpaceX/Seattle (US) in LEO that was launched on Thu, 11 Mar 2021 UTC via an FALCON 9 launch vehicle from the Air Force Eastern Test Range (AFETR). Payload-class satellites include a variety of spacecraft equipped with specific instruments for various scientific and technological missions. These include communications satellites like Starlink; space stations such as the ISS; scientific satellites like the Hubble; Earth observation satellites from companies like Planet Labs, Umbra, and HawkEye 360; GPS; miniature CubeSats for education and research; and military/defense satellites.

Loading next visibility...
Identifier
47819, 2021-018AJ
Orbit
LEO
Country
Flag of USUS
Related business
Manufacturer
SpaceX/Seattle
Mission
Operational Commercial Communications
Bus & Motor
STARLINK, Unknown motor
Mass
260 kg wet, ~248 kg dry
Launch date (UTC)
2021-03-11 (5 years ago)
Launch vehicle
FALCON 9
Launch site
Air Force Eastern Test Range (AFETR)
Object type
Payload
Rocket body
Debris
Shape & HBR
Box + 1 Pan, 10.1 m
Radar Cross Section
13.562 m², Large (>1 m²)

Expand to show TLE details & history
Last TLE update: 2 days ago

TLE from 2 days ago
0 STARLINK-2402
1 47819U 21018AJ  26171.28047642  .00001552  00000-0  61760-4 0  9998
2 47819  53.1598 125.7665 0001226  87.8320 272.2822 15.31708501292507
Epoch: 2026-06-20T06:43Z
TLE epoch observation values (Epoch: 2026-06-20T06:43:53.162Z)
Latitude
-0.00002°
Longitude
116.29762°
Altitude
471.582 km
Speed
7.631 km/s
True Right ascension
08h 23m 03s
True Declination
0° 00' 00"
Sunlit
Object was in daylight at epoch
Visualization orbit readout
Latitude
Unknown
Longitude
Unknown
Altitude
Unknown
Speed
Unknown
Apparent Right ascension
Unknown
Apparent Declination
Unknown
Sunlit
N/A
Visualization observer readout
Local Sidereal Time
21:43:05
Azimuth
Unknown
Elevation
Unknown
Doppler factor
Unknown
Orbital elements
Apogee altitude
471.811 km
Perigee altitude
470.132 km
Semi-major axis
6,849.108 km
Eccentricity
0.00012
Inclination
53.1598°
RAAN
125.7665°
Arg. of periapsis
87.832°
True anomaly
272.26816°
Mean anomaly
272.2822°
Eccentric anomaly
272.27518°
Mean motion
3.82906 °/min
Orbital period
94.02 mins
BSTAR
0.00006176
Loading maneuver chart data...
Computing Atmospheric mass density...

Documentation

Showing up to 5 results
|